Time,TemperatureF,DewpointF,PressureIn,WindDirection,WindDirectionDegrees,WindSpeedMPH,WindSpeedGustMPH,Humidity,HourlyPrecipIn,Conditions,Clouds,dailyrainin,SoftwareType,DateUTC
2013-03-03 00:01:00,45.0,36.0,29.89,WNW,290,5.0,-999.0,70,0.00,,,-99.99,,2013-03-03 00:01:00,
2013-03-03 00:11:00,43.0,36.0,29.90,West,270,3.0,-999.0,75,0.00,,,-99.99,,2013-03-03 00:11:00,
2013-03-03 00:22:00,39.0,36.0,29.90,North,0,0.0,-999.0,86,0.00,,,-99.99,,2013-03-03 00:22:00,
2013-03-03 00:31:00,41.0,36.0,29.90,WNW,300,5.0,-999.0,80,0.00,,,-99.99,,2013-03-03 00:31:00,
2013-03-03 00:41:00,41.0,36.0,29.90,WNW,290,5.0,-999.0,80,0.00,,,-99.99,,2013-03-03 00:41:00,
2013-03-03 00:52:00,41.0,36.0,29.90,WNW,290,5.0,-999.0,80,0.00,,,-99.99,,2013-03-03 00:52:00,
2013-03-03 01:01:00,41.0,36.0,29.90,WNW,290,5.0,-999.0,80,0.00,,,-99.99,,2013-03-03 01:01:00,
2013-03-03 01:11:00,43.0,36.0,29.91,WNW,300,5.0,-999.0,75,0.00,,,-99.99,,2013-03-03 01:11:00,
2013-03-03 01:21:00,41.0,36.0,29.91,West,280,5.0,-999.0,80,0.00,,,-99.99,,2013-03-03 01:21:00,
2013-03-03 01:31:00,39.0,36.0,29.91,West,280,5.0,-999.0,86,0.00,,,-99.99,,2013-03-03 01:31:00,
2013-03-03 01:41:00,39.0,36.0,29.91,West,270,6.0,-999.0,86,0.00,,,-99.99,,2013-03-03 01:41:00,
2013-03-03 01:51:00,39.0,36.0,29.92,West,280,5.0,-999.0,86,0.00,,,-99.99,,2013-03-03 01:51:00,
2013-03-03 02:01:00,39.0,36.0,29.92,West,280,5.0,-999.0,86,0.00,,,-99.99,,2013-03-03 02:01:00,
2013-03-03 02:11:00,37.0,36.0,29.93,West,260,3.0,-999.0,93,0.00,,,-99.99,,2013-03-03 02:11:00,
2013-03-03 02:21:00,37.0,36.0,29.93,West,270,3.0,-999.0,93,0.00,,,-99.99,,2013-03-03 02:21:00,
2013-03-03 02:31:00,37.0,36.0,29.93,West,280,3.0,-999.0,93,0.00,,,-99.99,,2013-03-03 02:31:00,
2013-03-03 02:41:00,37.0,36.0,29.93,West,280,3.0,-999.0,93,0.00,,,-99.99,,2013-03-03 02:41:00,
2013-03-03 02:52:00,36.0,36.0,29.93,West,270,5.0,-999.0,100,0.00,,,-99.99,,2013-03-03 02:52:00,
2013-03-03 03:01:00,36.0,36.0,29.93,West,270,5.0,-999.0,100,0.00,,,-99.99,,2013-03-03 03:01:00,
2013-03-03 03:11:00,37.0,36.0,29.93,West,280,5.0,-999.0,93,0.00,,,-99.99,,2013-03-03 03:11:00,
2013-03-03 03:21:00,37.0,36.0,29.94,West,260,3.0,-999.0,93,0.00,,,-99.99,,2013-03-03 03:21:00,
2013-03-03 03:31:00,36.0,36.0,29.93,West,260,3.0,-999.0,100,0.00,,,-99.99,,2013-03-03 03:31:00,
2013-03-03 03:41:00,34.0,34.0,29.93,West,270,3.0,-999.0,100,0.00,,,-99.99,,2013-03-03 03:41:00,
2013-03-03 03:51:00,36.0,36.0,29.93,West,270,3.0,-999.0,100,0.00,,,-99.99,,2013-03-03 03:51:00,
2013-03-03 04:01:00,36.0,36.0,29.93,West,270,3.0,-999.0,100,0.00,,,-99.99,,2013-03-03 04:01:00,
2013-03-03 04:11:00,32.0,32.0,29.92,West,260,5.0,-999.0,100,0.00,,,-99.99,,2013-03-03 04:11:00,
2013-03-03 04:21:00,34.0,34.0,29.92,WSW,240,5.0,-999.0,100,0.00,,,-99.99,,2013-03-03 04:21:00,
2013-03-03 04:31:00,32.0,32.0,29.92,West,270,5.0,-999.0,100,0.00,,,-99.99,,2013-03-03 04:31:00,
2013-03-03 04:41:00,34.0,34.0,29.92,West,260,5.0,-999.0,100,0.00,,,-99.99,,2013-03-03 04:41:00,
2013-03-03 04:51:00,30.0,30.0,29.92,WSW,250,5.0,-999.0,100,0.00,,,-99.99,,2013-03-03 04:51:00,
2013-03-03 05:01:00,30.0,30.0,29.92,WSW,250,5.0,-999.0,100,0.00,,,-99.99,,2013-03-03 05:01:00,
2013-03-03 05:11:00,32.0,32.0,29.92,WSW,240,5.0,-999.0,100,0.00,,,-99.99,,2013-03-03 05:11:00,
2013-03-03 05:21:00,32.0,32.0,29.92,WSW,240,5.0,-999.0,100,0.00,,,-99.99,,2013-03-03 05:21:00,
2013-03-03 05:31:00,32.0,32.0,29.91,West,260,5.0,-999.0,100,0.00,,,-99.99,,2013-03-03 05:31:00,
2013-03-03 05:42:00,34.0,34.0,29.91,West,260,5.0,-999.0,100,0.00,,,-99.99,,2013-03-03 05:42:00,
2013-03-03 05:51:00,32.0,32.0,29.91,West,280,5.0,-999.0,100,0.00,,,-99.99,,2013-03-03 05:51:00,
2013-03-03 06:01:00,32.0,32.0,29.91,West,280,5.0,-999.0,100,0.00,,,-99.99,,2013-03-03 06:01:00,
2013-03-03 06:11:00,36.0,36.0,29.92,West,280,6.0,-999.0,100,0.00,,,-99.99,,2013-03-03 06:11:00,
2013-03-03 06:21:00,36.0,36.0,29.92,West,270,5.0,-999.0,100,0.00,,,-99.99,,2013-03-03 06:21:00,
2013-03-03 06:31:00,36.0,36.0,29.92,West,270,6.0,-999.0,100,0.00,,,-99.99,,2013-03-03 06:31:00,
2013-03-03 06:42:00,36.0,36.0,29.92,West,260,5.0,-999.0,100,0.00,,,-99.99,,2013-03-03 06:42:00,
2013-03-03 06:51:00,36.0,36.0,29.92,West,270,6.0,-999.0,100,0.00,,,-99.99,,2013-03-03 06:51:00,
2013-03-03 07:01:00,36.0,36.0,29.92,West,270,6.0,-999.0,100,0.00,,,-99.99,,2013-03-03 07:01:00,
2013-03-03 07:11:00,37.0,37.0,29.92,WNW,290,6.0,-999.0,100,0.00,,,-99.99,,2013-03-03 07:11:00,
2013-03-03 07:21:00,37.0,37.0,29.92,WNW,290,6.0,-999.0,100,0.00,,,-99.99,,2013-03-03 07:21:00,
2013-03-03 07:31:00,37.0,37.0,29.92,WNW,290,6.0,-999.0,100,0.00,,,-99.99,,2013-03-03 07:31:00,
2013-03-03 07:42:00,37.0,37.0,29.92,WNW,290,5.0,-999.0,100,0.00,,,-99.99,,2013-03-03 07:42:00,
2013-03-03 07:51:00,37.0,37.0,29.91,WNW,300,5.0,-999.0,100,0.00,,,-99.99,,2013-03-03 07:51:00,
2013-03-03 08:01:00,37.0,37.0,29.91,WNW,300,5.0,-999.0,100,0.00,,,-99.99,,2013-03-03 08:01:00,
2013-03-03 08:11:00,37.0,37.0,29.91,WNW,290,5.0,-999.0,100,0.00,,,-99.99,,2013-03-03 08:11:00,
2013-03-03 08:21:00,37.0,37.0,29.91,NW,320,6.0,-999.0,100,0.00,,,-99.99,,2013-03-03 08:21:00,
2013-03-03 08:31:00,37.0,37.0,29.91,NW,320,6.0,-999.0,100,0.00,,,-99.99,,2013-03-03 08:31:00,
2013-03-03 08:41:00,37.0,37.0,29.91,NW,320,6.0,-999.0,100,0.00,,,-99.99,,2013-03-03 08:41:00,
2013-03-03 08:53:00,37.0,37.0,29.91,NNW,340,7.0,-999.0,100,0.00,,,-99.99,,2013-03-03 08:53:00,
2013-03-03 09:01:00,37.0,37.0,29.91,NNW,340,7.0,-999.0,100,0.00,,,-99.99,,2013-03-03 09:01:00,
2013-03-03 09:11:00,37.0,36.0,29.91,North,360,6.0,-999.0,93,0.00,,,-99.99,,2013-03-03 09:11:00,
2013-03-03 09:21:00,37.0,34.0,29.92,NNW,340,6.0,-999.0,86,0.00,,,-99.99,,2013-03-03 09:21:00,
2013-03-03 09:31:00,36.0,34.0,29.92,North,360,7.0,-999.0,93,0.00,,,-99.99,,2013-03-03 09:31:00,
2013-03-03 09:41:00,36.0,34.0,29.93,North,350,5.0,-999.0,93,0.00,,,-99.99,,2013-03-03 09:41:00,
2013-03-03 09:51:00,36.0,34.0,29.93,North,350,6.0,-999.0,93,0.00,,,-99.99,,2013-03-03 09:51:00,
2013-03-03 10:01:00,36.0,34.0,29.93,North,350,6.0,-999.0,93,0.00,,,-99.99,,2013-03-03 10:01:00,
2013-03-03 10:11:00,36.0,32.0,29.93,NNE,20,5.0,-999.0,86,0.00,,,-99.99,,2013-03-03 10:11:00,
2013-03-03 10:21:00,34.0,32.0,29.94,North,360,3.0,-999.0,93,0.00,,,-99.99,,2013-03-03 10:21:00,
2013-03-03 10:31:00,34.0,32.0,29.94,North,0,0.0,-999.0,93,0.00,,,-99.99,,2013-03-03 10:31:00,
2013-03-03 10:41:00,34.0,32.0,29.94,North,0,0.0,-999.0,93,0.00,,,-99.99,,2013-03-03 10:41:00,
2013-03-03 10:51:00,34.0,30.0,29.94,North,360,6.0,-999.0,86,0.00,,,-99.99,,2013-03-03 10:51:00,
2013-03-03 11:01:00,34.0,30.0,29.94,North,360,6.0,-999.0,86,0.00,,,-99.99,,2013-03-03 11:01:00,
2013-03-03 11:11:00,34.0,30.0,29.94,NNE,20,7.0,-999.0,86,0.00,,,-99.99,,2013-03-03 11:11:00,
2013-03-03 11:21:00,34.0,28.0,29.94,NNE,20,6.0,-999.0,80,0.00,,,-99.99,,2013-03-03 11:21:00,
2013-03-03 11:31:00,34.0,28.0,29.94,NNE,20,6.0,-999.0,80,0.00,,,-99.99,,2013-03-03 11:31:00,
2013-03-03 11:41:00,34.0,28.0,29.94,NNE,20,5.0,-999.0,80,0.00,,,-99.99,,2013-03-03 11:41:00,
2013-03-03 11:52:00,34.0,28.0,29.95,NNE,20,5.0,-999.0,80,0.00,,,-99.99,,2013-03-03 11:52:00,
2013-03-03 12:01:00,34.0,28.0,29.95,NNE,20,5.0,-999.0,80,0.00,,,-99.99,,2013-03-03 12:01:00,
2013-03-03 12:11:00,34.0,27.0,29.95,NNW,340,5.0,-999.0,74,0.00,,,0.00,,2013-03-03 12:11:00,
2013-03-03 12:21:00,34.0,28.0,29.96,NNW,330,5.0,-999.0,80,0.00,,,0.00,,2013-03-03 12:21:00,
2013-03-03 12:31:00,34.0,28.0,29.96,NNW,340,5.0,-999.0,80,0.00,,,0.00,,2013-03-03 12:31:00,
2013-03-03 12:42:00,34.0,28.0,29.96,North,350,3.0,-999.0,80,0.00,,,0.00,,2013-03-03 12:42:00,
2013-03-03 12:52:00,34.0,28.0,29.96,NNW,340,3.0,-999.0,80,0.00,,,0.00,,2013-03-03 12:52:00,
2013-03-03 13:01:00,34.0,28.0,29.96,NNW,340,3.0,-999.0,80,0.00,,,0.00,,2013-03-03 13:01:00,
2013-03-03 13:11:00,34.0,28.0,29.97,North,360,6.0,-999.0,80,0.00,,,-99.99,,2013-03-03 13:11:00,
2013-03-03 13:21:00,36.0,28.0,29.98,North,350,6.0,-999.0,74,0.00,,,-99.99,,2013-03-03 13:21:00,
2013-03-03 13:31:00,36.0,28.0,29.98,North,360,6.0,-999.0,74,0.00,,,-99.99,,2013-03-03 13:31:00,
2013-03-03 13:41:00,36.0,28.0,29.98,NNW,340,6.0,-999.0,74,0.00,,,-99.99,,2013-03-03 13:41:00,
2013-03-03 13:51:00,37.0,28.0,29.98,North,350,8.0,-999.0,69,0.00,,,-99.99,,2013-03-03 13:51:00,
2013-03-03 14:01:00,37.0,28.0,29.98,North,350,8.0,-999.0,69,0.00,,,-99.99,,2013-03-03 14:01:00,
2013-03-03 14:11:00,39.0,27.0,29.98,North,10,10.0,-999.0,60,0.00,,,-99.99,,2013-03-03 14:11:00,
2013-03-03 14:21:00,39.0,27.0,29.98,North,350,6.0,-999.0,60,0.00,,,-99.99,,2013-03-03 14:21:00,
2013-03-03 14:31:00,39.0,25.0,29.98,North,350,9.0,-999.0,55,0.00,,,-99.99,,2013-03-03 14:31:00,
2013-03-03 14:42:00,43.0,27.0,29.98,NW,320,10.0,-999.0,52,0.00,,,-99.99,,2013-03-03 14:42:00,
2013-03-03 14:52:00,43.0,25.0,29.98,North,360,10.0,-999.0,48,0.00,,,-99.99,,2013-03-03 14:52:00,
2013-03-03 15:01:00,43.0,25.0,29.98,North,360,10.0,-999.0,48,0.00,,,-99.99,,2013-03-03 15:01:00,
2013-03-03 15:11:00,43.0,25.0,29.98,North,10,8.0,-999.0,48,0.00,,,-99.99,,2013-03-03 15:11:00,
2013-03-03 15:21:00,43.0,25.0,29.97,NE,40,7.0,-999.0,48,0.00,,,-99.99,,2013-03-03 15:21:00,
2013-03-03 15:31:00,43.0,27.0,29.97,North,10,5.0,-999.0,52,0.00,,,-99.99,,2013-03-03 15:31:00,
2013-03-03 15:41:00,45.0,27.0,29.97,North,350,8.0,-999.0,48,0.00,,,-99.99,,2013-03-03 15:41:00,
2013-03-03 15:51:00,45.0,25.0,29.97,North,10,9.0,-999.0,45,0.00,,,-99.99,,2013-03-03 15:51:00,
2013-03-03 16:01:00,45.0,25.0,29.97,North,10,9.0,-999.0,45,0.00,,,-99.99,,2013-03-03 16:01:00,
2013-03-03 16:11:00,45.0,25.0,29.97,NNW,330,9.0,-999.0,45,0.00,,,-99.99,,2013-03-03 16:11:00,
2013-03-03 16:21:00,45.0,27.0,29.96,NW,320,10.0,16.0,48,0.00,,,-99.99,,2013-03-03 16:21:00,
2013-03-03 16:31:00,45.0,27.0,29.96,NNW,330,9.0,17.0,48,0.00,,,-99.99,,2013-03-03 16:31:00,
2013-03-03 16:41:00,45.0,27.0,29.96,NW,320,9.0,16.0,48,0.00,,,-99.99,,2013-03-03 16:41:00,
2013-03-03 16:51:00,46.0,27.0,29.96,NW,320,12.0,-999.0,45,0.00,,,-99.99,,2013-03-03 16:51:00,
2013-03-03 17:01:00,46.0,27.0,29.96,NW,320,12.0,-999.0,45,0.00,,,-99.99,,2013-03-03 17:01:00,
2013-03-03 17:11:00,46.0,25.0,29.95,NNW,330,10.0,22.0,42,0.00,,,-99.99,,2013-03-03 17:11:00,
2013-03-03 17:21:00,46.0,27.0,29.95,NNW,340,9.0,21.0,45,0.00,,,-99.99,,2013-03-03 17:21:00,
2013-03-03 17:31:00,46.0,27.0,29.95,WNW,300,8.0,17.0,45,0.00,,,-99.99,,2013-03-03 17:31:00,
2013-03-03 17:41:00,48.0,27.0,29.94,NW,320,13.0,18.0,42,0.00,,,-99.99,,2013-03-03 17:41:00,
2013-03-03 17:52:00,48.0,27.0,29.94,NW,310,12.0,18.0,42,0.00,,,-99.99,,2013-03-03 17:52:00,
2013-03-03 18:01:00,48.0,27.0,29.94,NW,310,12.0,18.0,42,0.00,,,-99.99,,2013-03-03 18:01:00,
2013-03-03 18:11:00,48.0,27.0,29.93,NW,320,9.0,22.0,42,0.00,,,-99.99,,2013-03-03 18:11:00,
2013-03-03 18:21:00,46.0,27.0,29.93,WNW,290,14.0,18.0,45,0.00,,,-99.99,,2013-03-03 18:21:00,
2013-03-03 18:31:00,48.0,27.0,29.92,West,280,10.0,14.0,42,0.00,,,-99.99,,2013-03-03 18:31:00,
2013-03-03 18:41:00,46.0,27.0,29.92,West,280,14.0,18.0,45,0.00,,,-99.99,,2013-03-03 18:41:00,
2013-03-03 18:52:00,48.0,27.0,29.91,WNW,300,13.0,17.0,42,0.00,,,-99.99,,2013-03-03 18:52:00,
2013-03-03 19:01:00,48.0,27.0,29.91,WNW,300,13.0,17.0,42,0.00,,,-99.99,,2013-03-03 19:01:00,
2013-03-03 19:11:00,48.0,27.0,29.91,NW,310,13.0,17.0,42,0.00,,,-99.99,,2013-03-03 19:11:00,
2013-03-03 19:21:00,48.0,27.0,29.91,West,270,14.0,21.0,42,0.00,,,-99.99,,2013-03-03 19:21:00,
2013-03-03 19:31:00,50.0,27.0,29.91,WNW,300,16.0,21.0,39,0.00,,,-99.99,,2013-03-03 19:31:00,
2013-03-03 19:41:00,50.0,27.0,29.91,WNW,300,16.0,21.0,39,0.00,,,-99.99,,2013-03-03 19:41:00,
2013-03-03 19:51:00,48.0,27.0,29.90,WNW,300,9.0,22.0,42,0.00,,,-99.99,,2013-03-03 19:51:00,
2013-03-03 20:01:00,48.0,27.0,29.90,WNW,300,9.0,22.0,42,0.00,,,-99.99,,2013-03-03 20:01:00,
2013-03-03 20:11:00,48.0,27.0,29.90,NW,310,14.0,22.0,42,0.00,,,-99.99,,2013-03-03 20:11:00,
2013-03-03 20:21:00,48.0,27.0,29.90,NW,310,13.0,21.0,42,0.00,,,-99.99,,2013-03-03 20:21:00,
2013-03-03 20:31:00,48.0,27.0,29.90,NW,310,10.0,20.0,42,0.00,,,-99.99,,2013-03-03 20:31:00,
2013-03-03 20:42:00,48.0,27.0,29.90,West,280,14.0,20.0,42,0.00,,,-99.99,,2013-03-03 20:42:00,
2013-03-03 20:52:00,48.0,27.0,29.90,WNW,300,14.0,23.0,42,0.00,,,-99.99,,2013-03-03 20:52:00,
2013-03-03 21:01:00,48.0,27.0,29.90,WNW,300,14.0,23.0,42,0.00,,,-99.99,,2013-03-03 21:01:00,
2013-03-03 21:11:00,48.0,27.0,29.90,NW,310,14.0,22.0,42,0.00,,,-99.99,,2013-03-03 21:11:00,
2013-03-03 21:21:00,48.0,27.0,29.90,NW,320,12.0,18.0,42,0.00,,,-99.99,,2013-03-03 21:21:00,
2013-03-03 21:31:00,48.0,27.0,29.90,WNW,300,13.0,18.0,42,0.00,,,-99.99,,2013-03-03 21:31:00,
2013-03-03 21:41:00,48.0,27.0,29.90,WNW,290,10.0,18.0,42,0.00,,,-99.99,,2013-03-03 21:41:00,
2013-03-03 21:51:00,48.0,27.0,29.90,NW,320,14.0,17.0,42,0.00,,,-99.99,,2013-03-03 21:51:00,
2013-03-03 22:01:00,48.0,27.0,29.90,NW,320,14.0,17.0,42,0.00,,,-99.99,,2013-03-03 22:01:00,
2013-03-03 22:11:00,46.0,27.0,29.90,WNW,300,14.0,18.0,45,0.00,,,-99.99,,2013-03-03 22:11:00,
2013-03-03 22:21:00,46.0,27.0,29.91,WNW,290,9.0,18.0,45,0.00,,,-99.99,,2013-03-03 22:21:00,
2013-03-03 22:31:00,45.0,27.0,29.91,West,280,8.0,-999.0,48,0.00,,,-99.99,,2013-03-03 22:31:00,
2013-03-03 22:41:00,46.0,27.0,29.92,WNW,290,9.0,-999.0,45,0.00,,,-99.99,,2013-03-03 22:41:00,
2013-03-03 22:52:00,45.0,27.0,29.92,WNW,290,8.0,-999.0,48,0.00,,,-99.99,,2013-03-03 22:52:00,
2013-03-03 23:01:00,45.0,27.0,29.92,WNW,290,8.0,-999.0,48,0.00,,,-99.99,,2013-03-03 23:01:00,
2013-03-03 23:11:00,45.0,27.0,29.93,West,270,8.0,-999.0,48,0.00,,,-99.99,,2013-03-03 23:11:00,
2013-03-03 23:21:00,43.0,28.0,29.94,West,270,7.0,-999.0,56,0.00,,,-99.99,,2013-03-03 23:21:00,
2013-03-03 23:31:00,43.0,28.0,29.95,West,270,8.0,-999.0,56,0.00,,,-99.99,,2013-03-03 23:31:00,
2013-03-03 23:41:00,43.0,28.0,29.95,West,270,8.0,-999.0,56,0.00,,,-99.99,,2013-03-03 23:41:00,
2013-03-03 23:52:00,43.0,28.0,29.95,West,270,9.0,-999.0,56,0.00,,,-99.99,,2013-03-03 23:52:00,